TimeCST,TemperatureF,Dew PointF,Humidity,Sea Level PressureIn,VisibilityMPH,Wind Direction,Wind SpeedMPH,Gust SpeedMPH,PrecipitationIn,Events,Conditions,WindDirDegrees,DateUTC
12:53 AM,44.1,35.1,71,30.17,10.0,SSE,4.6,-,N/A,,Overcast,160,2012-11-04 05:53:00
1:53 AM,42.8,35.6,76,30.15,10.0,South,5.8,-,N/A,,Mostly Cloudy,190,2012-11-04 06:53:00
1:53 AM,42.1,35.1,76,30.15,10.0,South,4.6,-,N/A,,Mostly Cloudy,180,2012-11-04 07:53:00
2:53 AM,39.9,35.1,83,30.14,10.0,South,6.9,-,N/A,,Clear,170,2012-11-04 08:53:00
3:53 AM,39.0,35.1,86,30.14,10.0,South,6.9,-,N/A,,Clear,180,2012-11-04 09:53:00
4:53 AM,37.9,35.1,89,30.13,10.0,South,8.1,-,N/A,,Clear,180,2012-11-04 10:53:00
5:53 AM,37.9,34.0,86,30.12,10.0,South,11.5,-,N/A,,Clear,180,2012-11-04 11:53:00
6:53 AM,37.9,34.0,86,30.11,10.0,South,9.2,17.3,N/A,,Clear,190,2012-11-04 12:53:00
7:53 AM,39.0,34.0,82,30.12,10.0,South,8.1,-,N/A,,Clear,190,2012-11-04 13:53:00
8:53 AM,43.0,36.0,76,30.10,10.0,SW,4.6,-,N/A,,Clear,230,2012-11-04 14:53:00
9:53 AM,48.0,36.0,63,30.08,10.0,SW,8.1,-,N/A,,Clear,230,2012-11-04 15:53:00
10:53 AM,51.1,35.1,54,30.07,10.0,WSW,9.2,-,N/A,,Clear,250,2012-11-04 16:53:00
11:53 AM,55.0,36.0,49,30.05,10.0,West,9.2,-,N/A,,Clear,270,2012-11-04 17:53:00
12:53 PM,59.0,36.0,42,30.02,10.0,West,6.9,-,N/A,,Clear,270,2012-11-04 18:53:00
1:53 PM,59.0,36.0,42,30.01,10.0,NW,5.8,-,N/A,,Partly Cloudy,310,2012-11-04 19:53:00
2:53 PM,59.0,36.0,42,30.02,10.0,WNW,6.9,-,N/A,,Overcast,300,2012-11-04 20:53:00
3:53 PM,57.0,37.9,49,30.03,10.0,NNE,5.8,-,N/A,,Overcast,30,2012-11-04 21:53:00
4:53 PM,54.0,37.9,55,30.06,10.0,North,9.2,-,N/A,,Overcast,350,2012-11-04 22:53:00
5:53 PM,52.0,37.9,59,30.09,10.0,North,9.2,-,N/A,,Overcast,360,2012-11-04 23:53:00
6:53 PM,50.0,37.9,63,30.09,10.0,NNW,4.6,-,0.00,,Overcast,340,2012-11-05 00:53:00
7:53 PM,48.9,37.9,66,30.10,10.0,NW,6.9,-,N/A,,Overcast,320,2012-11-05 01:53:00
8:53 PM,43.0,37.0,80,30.11,10.0,NW,5.8,-,N/A,,Scattered Clouds,320,2012-11-05 02:53:00
9:53 PM,44.1,37.0,76,30.11,10.0,NW,6.9,-,N/A,,Overcast,310,2012-11-05 03:53:00
10:53 PM,44.1,37.0,76,30.09,10.0,NW,6.9,-,N/A,,Scattered Clouds,320,2012-11-05 04:53:00